[[{"header":{"parameterUnit":"m.s-1","parameterCategory":1,"la1":30.2991,"la2":30.254,"lo1":-89.0895,"lo2":-89.0444,"dy":0.0017,"dx":0.0017,"nx":28,"ny":28,"refTime":"2025-04-13T09:00:00:Z","depth":0,"parameterNumber":2,"parameterNumberName":"U-component_of_WINDS"},"data":[0,0,0,0,0,0,0,0,0,0,0,0,0,0,0,0,0,0,0,0,0,0,0,0,0,0,0,0,0,0,0,0,0,0,0,0,0,0,0,0,0,0,0,0,0,0,0,0,0,0,0,0,0,0,0,0,0,0,-2.4404,-2.4405,0,-2.4422,-2.4422,-2.4422,-2.4421,-2.4421,-2.442,-2.442,-2.4438,-2.4439,-2.444,0,0,0,0,0,0,0,0,0,0,0,0,0,-2.4372,-2.4373,-2.4404,-2.4405,-2.4405,-2.4422,-2.4422,-2.4422,-2.4421,-2.4421,-2.442,-2.442,-2.4438,-2.4439,-2.444,0,0,0,0,0,0,0,0,0,0,0,0,0,-2.4387,-2.4373,-2.4404,-2.4406,-2.4407,-2.4421,-2.4422,-2.4422,-2.4421,-2.4421,-2.442,-2.442,-2.4438,-2.4439,-2.444,-2.4454,0,0,-2.4443,-2.4443,0,0,0,0,0,0,0,0,-2.4386,-2.4389,-2.4406,-2.4406,-2.4406,-2.4419,-2.4417,-2.4433,-2.4421,-2.4415,-2.442,-2.442,-2.4432,-2.4433,-2.4438,-2.4455,-2.4456,-2.4443,-2.4444,-2.4444,-2.4445,0,0,0,0,0,0,0,-2.4385,-2.4388,-2.4411,-2.4406,-2.4406,-2.4407,-2.4408,-2.442,-2.4426,-2.4416,-2.4416,-2.4418,-2.4432,-2.4437,-2.4438,-2.4456,-2.4443,-2.4444,-2.4445,-2.4445,-2.4487,-2.4487,0,0,0,0,0,0,-2.4384,-2.4387,-2.4411,-2.4412,-2.4395,-2.4408,-2.441,-2.4415,-2.4426,-2.4427,-2.4418,-2.4418,-2.4435,-2.4437,-2.4439,-2.4456,-2.4444,-2.4445,-2.4446,-2.4486,-2.4487,-2.4487,0,0,0,0,0,0,-2.4383,-2.4386,-2.441,-2.4399,-2.4402,-2.4409,-2.4415,-2.4416,-2.442,-2.4427,-2.4428,-2.4421,-2.4435,-2.4437,-2.445,-2.4457,-2.4446,-2.4447,-2.4486,-2.4487,-2.4487,-2.4491,0,0,0,0,0,0,-2.4382,-2.4386,-2.4391,-2.4399,-2.4403,-2.4421,-2.4415,-2.4416,-2.4422,-2.4421,-2.4431,-2.4432,-2.4435,-2.4449,-2.4451,-2.4458,-2.4448,-2.4485,-2.4486,-2.4487,-2.449,-2.4492,-2.4493,0,0,0,0,0,-2.4381,-2.4391,-2.4391,-2.4394,-2.4409,-2.4421,-2.4423,-2.4426,-2.4422,-2.4428,-2.4433,-2.4432,-2.4456,-2.445,-2.4453,-2.446,-2.4485,-2.4486,-2.4487,-2.449,-2.4492,-2.4493,0,0,0,0,0,0,-2.4383,-2.4392,-2.4392,-2.4405,-2.4412,-2.4421,-2.4427,-2.4428,-2.4436,-2.4435,-2.4439,-2.4441,-2.4454,-2.4459,-2.4452,-2.4475,-2.447,-2.4472,-2.4471,-2.4473,-2.4474,-2.4472,-2.4448,0,0,0,0,0,-2.4385,-2.4393,-2.4401,-2.4412,-2.4416,-2.4421,-2.4426,-2.4428,-2.4436,-2.4439,-2.4445,-2.4452,-2.4462,-2.4468,-2.4477,-2.4492,-2.4494,-2.4498,-2.45,-2.4501,-2.4502,-2.451,-2.4512,-2.4491,-2.4491,-2.4491,0,0,-2.4388,-2.4395,-2.44,-2.4412,-2.4418,-2.4427,-2.4424,-2.4433,-2.444,-2.444,-2.4453,-2.4458,-2.4467,-2.4481,-2.4488,-2.4485,-2.4509,-2.4502,-2.4503,-2.4503,-2.4512,-2.4514,-2.4515,-2.4492,-2.4491,-2.4491,0,0,-2.44,-2.4406,-2.4415,-2.4422,-2.443,-2.4434,-2.4437,-2.4446,-2.4449,-2.4462,-2.4462,-2.4471,-2.4487,-2.4494,-2.4499,-2.4515,-2.4515,-2.4519,-2.4525,-2.4533,-2.4535,-2.4536,-2.4542,-2.4544,-2.452,-2.452,-2.452,0,-2.4403,-2.4417,-2.442,-2.443,-2.4436,-2.4437,-2.4447,-2.4453,-2.4465,-2.4469,-2.4467,-2.4488,-2.4494,-2.451,-2.4514,-2.4518,-2.4521,-2.4517,-2.4534,-2.4536,-2.4537,-2.4543,-2.4545,-2.452,-2.452,-2.452,-2.452,0,-2.4421,-2.443,-2.4437,-2.4448,-2.4455,-2.4465,-2.4471,-2.4478,-2.4479,-2.4484,-2.4497,-2.4505,-2.4516,-2.452,-2.4522,-2.4537,-2.4535,-2.4534,-2.4528,-2.454,-2.4545,-2.4547,-2.4521,-2.452,-2.452,-2.452,0,0,-2.4432,-2.4446,-2.4449,-2.4454,-2.4465,-2.4472,-2.4483,-2.4494,-2.4499,-2.4508,-2.4517,-2.4532,-2.4531,-2.4537,-2.454,-2.4547,-2.456,-2.4545,-2.4545,-2.4547,-2.4577,-2.4577,-2.4579,-2.456,-2.456,-2.4561,-2.4576,0,-2.4444,-2.4462,-2.4467,-2.4483,-2.4492,-2.4494,-2.4503,-2.4511,-2.4516,-2.4525,-2.4531,-2.4541,-2.4539,-2.4543,-2.455,-2.4556,-2.4565,-2.4556,-2.4568,-2.4569,-2.4565,-2.4582,-2.4582,-2.4595,-2.4578,-2.4578,-2.4578,0,-2.446,-2.4469,-2.4486,-2.4496,-2.45,-2.4509,-2.4519,-2.4528,-2.4537,-2.4541,-2.4548,-2.4551,-2.4563,-2.4558,-2.4575,-2.4568,-2.4574,-2.4578,-2.4579,-2.4579,-2.4573,-2.4582,-2.46,-2.4602,-2.4581,-2.4581,-2.4581,0,-2.4466,-2.4483,-2.4495,-2.45,-2.4512,-2.4518,-2.4524,-2.4533,-2.4539,-2.4549,-2.4554,-2.4565,-2.4571,-2.458,-2.4585,-2.4582,-2.4602,-2.4598,-2.4605,-2.4605,-2.4608,-2.4607,-2.4626,-2.4613,-2.4613,-2.4613,-2.4613,0,-2.4479,-2.4489,-2.4498,-2.4505,-2.4517,-2.4522,-2.4534,-2.454,-2.4548,-2.4557,-2.4561,-2.4569,-2.4577,-2.4586,-2.4591,-2.4604,-2.4607,-2.461,-2.4611,-2.4609,-2.4609,-2.4612,-2.4611,-2.4614,-2.4614,-2.4614,-2.4613,0,-2.4487,-2.4493,-2.4506,-2.4518,-2.4521,-2.4529,-2.4539,-2.4546,-2.4552,-2.4564,-2.4567,-2.4576,-2.4588,-2.4595,-2.461,-2.4613,-2.4627,-2.4628,-2.4624,-2.4624,-2.463,-2.4629,-2.4651,-2.4654,-2.464,-2.4641,-2.4641,0,-2.4494,-2.4501,-2.4514,-2.452,-2.4525,-2.4535,-2.4542,-2.4549,-2.4556,-2.4568,-2.4574,-2.4587,-2.4596,-2.4615,-2.4624,-2.4635,-2.4636,-2.4643,-2.4638,-2.4636,-2.4636,-2.4635,-2.4635,-2.4644,-2.4644,-2.4644,-2.4644,0,-2.4505,-2.4508,-2.4518,-2.4529,-2.4537,-2.4546,-2.4555,-2.456,-2.4568,-2.4576,-2.4588,-2.4596,-2.4612,-2.4624,-2.4636,-2.4643,-2.4645,-2.4646,-2.4648,-2.4645,-2.4642,-2.4644,-2.4625,-2.4645,-2.4645,-2.4645,-2.4645,-2.4645,-2.4512,-2.452,-2.4529,-2.454,-2.4548,-2.4556,-2.4564,-2.4571,-2.4581,-2.4594,-2.4598,-2.4611,-2.4621,-2.4639,-2.4646,-2.4656,-2.4655,-2.4658,-2.4659,-2.4659,-2.4659,-2.4642,-2.4659,-2.4659,-2.4659,-2.4659,-2.4659,0,-2.4524,-2.453,-2.454,-2.4553,-2.4562,-2.4563,-2.4574,-2.4581,-2.4592,-2.4602,-2.4612,-2.4626,-2.4638,-2.4648,-2.466,-2.4667,-2.4668,-2.467,-2.4669,-2.4671,-2.466,-2.4656,-2.4669,-2.4669,-2.4669,-2.4669,-2.4669,-2.4669,-2.4531,-2.4543,-2.4547,-2.4564,-2.4571,-2.4583,-2.4589,-2.4597,-2.4605,-2.462,-2.463,-2.4637,-2.4647,-2.4661,-2.4672,-2.4675,-2.4679,-2.468,-2.4683,-2.4672,-2.4671,-2.467,-2.4667,-2.4681,-2.4681,-2.4693,-2.4693,-2.4693]},{"header":{"parameterUnit":"m.s-1","parameterCategory":1,"la1":30.2991,"la2":30.254,"lo1":-89.0895,"lo2":-89.0444,"dy":0.0017,"dx":0.0017,"nx":28,"ny":28,"refTime":"2025-04-13T09:00:00:Z","depth":0,"parameterNumber":3,"parameterNumberName":"V-component_of_WINDS"},"data":[0,0,0,0,0,0,0,0,0,0,0,0,0,0,0,0,0,0,0,0,0,0,0,0,0,0,0,0,0,0,0,0,0,0,0,0,0,0,0,0,0,0,0,0,0,0,0,0,0,0,0,0,0,0,0,0,0,0,4.4753,4.4754,0,4.4844,4.4845,4.4846,4.4887,4.4887,4.4887,4.4887,4.4976,4.4978,4.4981,0,0,0,0,0,0,0,0,0,0,0,0,0,4.4614,4.4616,4.4753,4.4754,4.4756,4.4844,4.4845,4.4846,4.4887,4.4887,4.4887,4.4887,4.4975,4.4978,4.4981,0,0,0,0,0,0,0,0,0,0,0,0,0,4.4686,4.4617,4.4753,4.4787,4.4791,4.4844,4.4845,4.4847,4.4887,4.4887,4.4887,4.4887,4.4974,4.4978,4.4982,4.5006,0,0,4.4993,4.4994,0,0,0,0,0,0,0,0,4.4682,4.4691,4.4781,4.4785,4.4789,4.4854,4.4829,4.49,4.4887,4.4851,4.4887,4.4887,4.4935,4.4942,4.4959,4.5011,4.5014,4.4993,4.4995,4.4997,4.4998,0,0,0,0,0,0,0,4.4677,4.4688,4.4789,4.4782,4.4787,4.4797,4.4807,4.4842,4.4892,4.4854,4.4857,4.4867,4.4938,4.4956,4.4962,4.5016,4.4993,4.4996,4.4998,4.5,4.5094,4.5094,0,0,0,0,0,0,4.4667,4.4683,4.4786,4.4792,4.4734,4.4799,4.4811,4.4833,4.4892,4.4901,4.4867,4.4869,4.495,4.4957,4.4965,4.5,4.4997,4.5,4.5002,4.5094,4.5094,4.5094,0,0,0,0,0,0,4.4664,4.4676,4.4783,4.4739,4.4753,4.4802,4.4827,4.4835,4.4854,4.4903,4.4911,4.4877,4.495,4.496,4.4997,4.5003,4.5002,4.5005,4.5093,4.5094,4.5094,4.5068,0,0,0,0,0,0,4.466,4.4674,4.4685,4.4739,4.4755,4.4813,4.4827,4.4837,4.486,4.4863,4.4914,4.4922,4.4951,4.4991,4.5,4.5008,4.5008,4.5093,4.5094,4.5094,4.5068,4.5067,4.5067,0,0,0,0,0,4.4655,4.4672,4.4685,4.4697,4.4769,4.4813,4.4823,4.4856,4.4861,4.4871,4.4903,4.492,4.5001,4.4994,4.5005,4.5014,4.5093,4.5093,4.5094,4.5069,4.5068,4.5067,0,0,0,0,0,0,4.4616,4.468,4.4695,4.4731,4.4767,4.482,4.4835,4.4854,4.4888,4.4889,4.4928,4.4939,4.4973,4.4997,4.4989,4.5043,4.5048,4.5051,4.5026,4.5025,4.5024,4.5017,4.5011,0,0,0,0,0,4.4612,4.4644,4.4697,4.4724,4.4741,4.4785,4.4805,4.4828,4.4867,4.4881,4.4916,4.4951,4.4985,4.5006,4.504,4.5072,4.5084,4.5084,4.5083,4.5082,4.5084,4.5105,4.5106,4.5097,4.5097,4.5097,0,0,4.4604,4.4642,4.466,4.4717,4.4748,4.4779,4.4797,4.4829,4.4853,4.4886,4.4924,4.495,4.4992,4.5028,4.5045,4.5049,4.509,4.5083,4.5082,4.5085,4.5106,4.5107,4.5107,4.5097,4.5097,4.5097,0,0,4.4605,4.4637,4.4663,4.4694,4.4741,4.477,4.4777,4.4828,4.4848,4.4886,4.4913,4.4941,4.4997,4.5027,4.505,4.5064,4.5082,4.5074,4.5069,4.5089,4.509,4.509,4.5097,4.5099,4.5076,4.5076,4.5076,0,4.4588,4.4637,4.4674,4.4706,4.4731,4.4764,4.4792,4.4819,4.4874,4.489,4.4894,4.4968,4.4998,4.5042,4.5046,4.5062,4.5071,4.5068,4.5087,4.5088,4.5089,4.5096,4.5098,4.5074,4.5075,4.5075,4.5075,0,4.4615,4.4649,4.4664,4.4719,4.4745,4.4774,4.4816,4.4838,4.4859,4.4888,4.4928,4.4966,4.5009,4.5021,4.504,4.5068,4.5069,4.5079,4.5086,4.5088,4.5095,4.5098,4.5073,4.5073,4.5074,4.5074,0,0,4.4593,4.4669,4.4674,4.47,4.4755,4.4782,4.4813,4.4856,4.4875,4.4912,4.494,4.4988,4.4999,4.5024,4.5048,4.5065,4.5076,4.5074,4.5076,4.5074,4.511,4.5102,4.5105,4.5088,4.5089,4.5089,4.5107,0,4.4602,4.466,4.4696,4.474,4.4772,4.4805,4.4832,4.4869,4.4897,4.4928,4.4958,4.4993,4.5004,4.502,4.5038,4.5071,4.5084,4.507,4.5114,4.5115,4.5103,4.5108,4.51,4.5114,4.511,4.511,4.511,0,4.462,4.4659,4.4706,4.476,4.4775,4.4799,4.4843,4.4872,4.4914,4.4934,4.4963,4.4988,4.5022,4.5026,4.5074,4.5064,4.5084,4.5103,4.5104,4.511,4.5113,4.5115,4.5119,4.5122,4.5115,4.5114,4.5114,0,4.4601,4.4664,4.4702,4.4723,4.4786,4.4802,4.4829,4.4871,4.4896,4.4934,4.4951,4.4991,4.5013,4.5044,4.5079,4.5079,4.5124,4.513,4.5141,4.514,4.5149,4.5148,4.5158,4.5161,4.5161,4.5161,4.5161,0,4.4608,4.4636,4.4695,4.4717,4.475,4.4791,4.4822,4.4851,4.4889,4.4918,4.4948,4.4975,4.5019,4.5051,4.5078,4.5115,4.5124,4.5141,4.5148,4.5139,4.5137,4.5152,4.5153,4.5161,4.5161,4.5161,4.5161,0,4.4592,4.4632,4.4675,4.4732,4.4747,4.4769,4.4818,4.4841,4.4872,4.4908,4.4919,4.4966,4.5006,4.5044,4.5096,4.5115,4.5151,4.516,4.5137,4.5141,4.515,4.5149,4.5171,4.5177,4.5175,4.5175,4.5175,0,4.4594,4.4617,4.4677,4.47,4.4726,4.4762,4.4788,4.4829,4.4854,4.4906,4.4923,4.4966,4.5002,4.5063,4.5102,4.5142,4.5153,4.5158,4.5159,4.5149,4.5154,4.5153,4.5156,4.5157,4.5156,4.5156,4.5156,0,4.4594,4.4613,4.465,4.4695,4.4726,4.4762,4.48,4.4816,4.4864,4.4892,4.4934,4.4962,4.5016,4.5058,4.5104,4.513,4.5152,4.5156,4.5161,4.5151,4.5138,4.5147,4.5136,4.5155,4.5155,4.5155,4.5155,4.5155,4.4587,4.461,4.4657,4.4698,4.4731,4.4766,4.4792,4.4826,4.4862,4.4911,4.4933,4.4975,4.5019,4.5082,4.5109,4.5143,4.5148,4.5154,4.5156,4.5157,4.5156,4.5132,4.5151,4.5151,4.5151,4.5151,4.5151,0,4.459,4.4622,4.4659,4.4712,4.4745,4.4763,4.4806,4.4832,4.487,4.4909,4.4945,4.4993,4.5034,4.5077,4.5121,4.5139,4.515,4.515,4.5149,4.5155,4.5148,4.5141,4.514,4.514,4.514,4.514,4.514,4.514,4.4595,4.4635,4.466,4.4717,4.4749,4.4792,4.4816,4.4848,4.488,4.4934,4.4969,4.4997,4.5038,4.5086,4.5124,4.5136,4.5151,4.5147,4.5162,4.5155,4.5155,4.5156,4.5149,4.515,4.515,4.5166,4.5166,4.5166]}]]